Miscellaneous Local Product
Issued by NWS North Platte, NE

Home | Current Version | Previous Version | Graphics & Text | Print | Product List | Glossary On
Versions: 1 2 3 4 5 6 7 8 9 10 11 12 13 14 15 16 17 18 19 20 21 22 23 24 25 26 27 28 29 30 31 32 33 34 35 36 37 38 39 40 41 42 43 44 45 46 47 48 49 50
000
AXUS43 KLBF 290210
MISLBF


WESTERN AND NORTH CENTRAL NEBRASKA HOURLY WEATHER ROUNDUP
NATIONAL WEATHER SERVICE NORTH PLATTE NE
900 PM CDT THU MAY 28 2015

***STATIONS NOT REPORTING VARIABLES SUCH AS SKY/WEATHER OR
PRESSURE ARE PROVIDED BY THE NEBRASKA DEPARTMENT OF
ROADS...RAWS...AND APRS NETWORKS...AND ARE NOT UNDER
NATIONAL WEATHER SERVICE QUALITY CONTROL***

...OBSERVATIONS IN AND NEAR THE EASTERN PANHANDLE OF NEBRASKA...

CITY           SKY/WX    TMP DP  RH WIND       PRES   REMARKS
PINE RIDGE     LGT RAIN  57  53  86 N7        29.98R
CHADRON        CLOUDY    60  54  80 NE9       29.96R
ALLIANCE       CLOUDY    60  54  80 NW23G33   29.98R
SIDNEY         CLOUDY    56  54  93 SW3       29.97R
WHITECLAY        N/A     56  52  88 NW3         N/A
BIG SPRINGS      N/A     61  55  82 E12         N/A
$$

...OBSERVATIONS IN NORTH CENTRAL NEBRASKA...

CITY           SKY/WX    TMP DP  RH WIND       PRES   REMARKS
VALENTINE      CLOUDY    65  56  72 CALM      29.89R
THEDFORD       CLOUDY    65  54  67 SE15      29.92S
AINSWORTH      CLOUDY    65  61  88 E6        29.87F
O`NEILL        CLOUDY    72  61  70 S5        29.88F
ORD            CLOUDY    69  63  81 SE7       29.88R THUNDER
BROKEN BOW     CLOUDY    72  61  68 S9        29.90S THUNDER
BROWNLEE         N/A     68  51  54 SE5         N/A
VALENTINE NWR    N/A     65  58  78 S6G13       N/A
SPRINGVIEW       N/A     64  60  87 CALM        N/A
ROSE             N/A     72  64  78 E10         N/A
NEWPORT          N/A     65  60  85 NE3         N/A
SARGENT          N/A     69  62  79 CALM        N/A
COMSTOCK         N/A     77  66  70 S6          N/A
EWING            N/A     74  63  67 S5          N/A
$$

...OBSERVATIONS IN SOUTHWEST NEBRASKA AND FAR NORTHEAST COLORADO...

CITY           SKY/WX    TMP DP  RH WIND       PRES   REMARKS
WRAY           FAIR      58  52  79 E7        29.97R
HOLYOKE        FAIR      61  52  72 SW8       29.96R
IMPERIAL       CLOUDY    57  50  77 NE13      29.90F
OGALLALA       CLOUDY    60  54  81 NE7       29.91F
NORTH PLATTE   RAIN      58  54  86 W16       29.94R
MCCOOK         LGT RAIN  57  54  89 N15       29.98F
LEXINGTON      CLOUDY    71  61  71 S14       29.92S
PAXTON           N/A     60  55  84 S6          N/A
GOTHENBURG       N/A     59  53  82 W9          N/A
CALLAWAY         N/A     61  58  88 NW12        N/A
$$

...NORTH PLATTE AREA...

CITY           SKY/WX    TMP DP  RH WIND       PRES   REMARKS
AIRPORT        RAIN      58  54  86 W16       29.94R
DOWNTOWN         N/A     58  54  87 NW3         N/A
$$

...SOME WEATHER OBSERVATIONS FROM AROUND THE REGION...

CITY           SKY/WX    TMP DP  RH WIND       PRES   REMARKS
DENVER         MOCLDY    58  49  72 NE12      30.05R THUNDER
LARAMIE        PTCLDY    50  33  52 NW7       30.14R
CHEYENNE       MOCLDY    61  36  39 NW14G22   30.08R
SCOTTSBLUFF    CLOUDY    59  49  69 NE15G25   29.98R
RAPID CITY     CLOUDY    59  53  80 N20       29.95F
PIERRE         CLOUDY    63  59  87 E7        29.85R
WINNER         FAIR      65  57  75 S5        29.84F
SIOUX FALLS    CLOUDY    69  58  67 S15       29.88S
OMAHA          MOCLDY    69  63  81 S9        29.93R
GRAND ISLAND   CLOUDY    73  58  59 S13       29.93R
KANSAS CITY    CLOUDY    69  64  84 CALM      30.00R
WICHITA        MOCLDY    73  65  75 SE9       29.92R
HAYS           CLOUDY    61  52  72 W26G33    29.98R
LIBERAL        CLOUDY    63  52  67 S22G33    29.95F
GOODLAND       CLOUDY    58  52  80 SW5       30.00F
$$



USA.gov is the U.S. government's official web portal to all federal, state and local government web resources and services.